[[{"header":{"parameterUnit":"m.s-1","parameterCategory":1,"la1":30.2991,"la2":30.254,"lo1":-89.0895,"lo2":-89.0444,"dy":0.0017,"dx":0.0017,"nx":28,"ny":28,"refTime":"2026-02-10T09:00:00:Z","depth":0,"parameterNumber":2,"parameterNumberName":"U-component_of_WINDS"},"data":[0,0,0,0,0,0,0,0,0,0,0,0,0,0,0,0,0,0,0,0,0,0,0,0,0,0,0,0,0,0,0,0,0,0,0,0,0,0,0,0,0,0,0,0,0,0,0,0,0,0,0,0,0,0,0,0,0,0,1.7244,1.7244,0,1.7313,1.7314,1.7315,1.7296,1.7294,1.7293,1.7292,1.7365,1.7368,1.7371,0,0,0,0,0,0,0,0,0,0,0,0,0,1.7096,1.7099,1.7244,1.7244,1.7245,1.7313,1.7314,1.7315,1.7296,1.7294,1.7293,1.7291,1.7364,1.7367,1.7371,0,0,0,0,0,0,0,0,0,0,0,0,0,1.7163,1.71,1.7243,1.7244,1.7245,1.7313,1.7314,1.7315,1.7296,1.7294,1.7292,1.729,1.7362,1.7367,1.7372,1.7444,0,0,1.7387,1.7389,0,0,0,0,0,0,0,0,1.7159,1.7168,1.7243,1.7244,1.7245,1.7293,1.7289,1.7358,1.7297,1.7277,1.7292,1.7289,1.7343,1.7349,1.7367,1.7447,1.745,1.7387,1.739,1.7392,1.7394,0,0,0,0,0,0,0,1.7154,1.7165,1.7271,1.7244,1.7245,1.7241,1.7248,1.7302,1.7321,1.7278,1.7277,1.7286,1.7343,1.7362,1.7368,1.7452,1.7387,1.7391,1.7394,1.7396,1.7594,1.7596,0,0,0,0,0,0,1.7149,1.7161,1.7269,1.7273,1.7196,1.7246,1.7254,1.728,1.732,1.7324,1.7287,1.7284,1.7355,1.7363,1.7371,1.7457,1.7392,1.7397,1.74,1.7592,1.7595,1.7597,0,0,0,0,0,0,1.7146,1.7159,1.7266,1.7217,1.723,1.725,1.728,1.7283,1.7302,1.7327,1.733,1.7303,1.7354,1.7364,1.7426,1.7459,1.7399,1.7403,1.7589,1.7593,1.7596,1.763,0,0,0,0,0,0,1.7142,1.7158,1.7185,1.7218,1.7233,1.7319,1.7282,1.7285,1.731,1.7307,1.7343,1.7347,1.7353,1.7418,1.743,1.7465,1.7407,1.7586,1.7591,1.7595,1.7626,1.7635,1.7642,0,0,0,0,0,1.7136,1.7192,1.7186,1.7199,1.7267,1.7321,1.733,1.7335,1.7313,1.734,1.7356,1.7346,1.7454,1.7425,1.7438,1.7475,1.7584,1.7589,1.7595,1.7623,1.7633,1.7642,0,0,0,0,0,0,1.7163,1.7197,1.719,1.7258,1.7287,1.7318,1.7353,1.7346,1.7382,1.7377,1.7383,1.7391,1.7454,1.7471,1.7438,1.7546,1.7516,1.7524,1.7533,1.7543,1.755,1.7544,1.7411,0,0,0,0,0,1.7177,1.7217,1.7245,1.7302,1.7317,1.7332,1.7356,1.7358,1.7388,1.74,1.7421,1.7451,1.7491,1.7518,1.7557,1.7629,1.7636,1.7661,1.7669,1.7675,1.7681,1.772,1.7731,1.7614,1.7614,1.7614,0,0,1.7206,1.7229,1.7254,1.7308,1.733,1.7372,1.7343,1.7389,1.742,1.7407,1.7466,1.7482,1.7517,1.7583,1.7614,1.7599,1.7715,1.7682,1.7686,1.769,1.7726,1.7737,1.7747,1.7618,1.7617,1.7617,0,0,1.728,1.7302,1.7351,1.7374,1.7408,1.7419,1.7431,1.7463,1.7473,1.7532,1.7523,1.7561,1.7631,1.7656,1.7677,1.7761,1.7752,1.7774,1.7813,1.7851,1.786,1.7868,1.7897,1.7907,1.778,1.778,1.7781,0,1.7311,1.7374,1.7378,1.7424,1.7448,1.7438,1.7489,1.7511,1.7557,1.7573,1.7556,1.7644,1.7667,1.7738,1.7759,1.7777,1.7791,1.7769,1.7858,1.7866,1.7874,1.7901,1.7912,1.7783,1.7782,1.7782,1.7782,0,1.741,1.7454,1.749,1.7533,1.7561,1.761,1.7622,1.765,1.7649,1.7661,1.7721,1.7748,1.7792,1.781,1.781,1.7882,1.7871,1.7857,1.7826,1.7887,1.7913,1.7924,1.7786,1.7785,1.7785,1.7784,0,0,1.7502,1.7547,1.756,1.7579,1.7616,1.765,1.7698,1.774,1.7764,1.7796,1.7836,1.7896,1.7882,1.7907,1.791,1.7943,1.8006,1.7924,1.7925,1.7937,1.8086,1.8096,1.8108,1.8001,1.8003,1.8005,1.8083,0,1.7577,1.7661,1.7666,1.7742,1.7782,1.7774,1.7816,1.7843,1.7856,1.7892,1.7907,1.7949,1.7928,1.7943,1.7975,1.7992,1.8036,1.7986,1.8038,1.804,1.8028,1.8122,1.8132,1.8204,1.8093,1.8095,1.8096,0,1.7676,1.771,1.779,1.7821,1.7838,1.7875,1.7914,1.7949,1.798,1.7987,1.8015,1.8014,1.8063,1.8032,1.81,1.8066,1.8089,1.81,1.8103,1.8107,1.8071,1.8127,1.8227,1.8238,1.8112,1.8111,1.811,0,1.7733,1.7799,1.7855,1.7872,1.791,1.7936,1.7953,1.7983,1.8008,1.8042,1.8058,1.8099,1.8121,1.8152,1.8162,1.8138,1.823,1.82,1.8237,1.8237,1.8255,1.8254,1.8359,1.8272,1.8272,1.8272,1.8272,0,1.7816,1.7864,1.788,1.7915,1.7969,1.7976,1.8029,1.8045,1.8071,1.8109,1.8105,1.814,1.8152,1.8189,1.8198,1.8253,1.8263,1.827,1.8271,1.8269,1.8268,1.8283,1.8277,1.8275,1.8274,1.8274,1.8273,0,1.7887,1.79,1.796,1.7991,1.8001,1.8039,1.8066,1.8099,1.8112,1.8159,1.817,1.819,1.8234,1.8247,1.8301,1.8306,1.837,1.8368,1.8359,1.8359,1.8395,1.8391,1.8512,1.8528,1.8432,1.8433,1.8434,0,1.7938,1.7975,1.801,1.8035,1.8053,1.8093,1.8118,1.8127,1.8153,1.8192,1.822,1.8263,1.8298,1.8369,1.8389,1.8429,1.8427,1.8467,1.8433,1.843,1.8426,1.8423,1.8426,1.8473,1.8474,1.8475,1.8475,0,1.8027,1.8032,1.8068,1.8106,1.8137,1.8168,1.8198,1.8218,1.8231,1.8261,1.8306,1.8333,1.8387,1.843,1.8471,1.849,1.8485,1.8486,1.8496,1.8494,1.8487,1.849,1.8375,1.8483,1.8482,1.8481,1.8481,1.8481,1.8089,1.8121,1.815,1.8191,1.8214,1.8242,1.8275,1.8291,1.8328,1.8372,1.8376,1.8424,1.8455,1.851,1.853,1.8568,1.8557,1.8572,1.8576,1.8579,1.8582,1.8482,1.8576,1.8576,1.8576,1.8576,1.8576,0,1.8176,1.8194,1.8232,1.8273,1.8305,1.8298,1.8331,1.8358,1.84,1.8429,1.8464,1.8515,1.8556,1.858,1.8621,1.8647,1.8646,1.8658,1.8655,1.866,1.859,1.8576,1.8658,1.8658,1.8658,1.8658,1.8658,1.8658,1.8224,1.8278,1.8287,1.8352,1.8371,1.8417,1.8436,1.8462,1.8486,1.8542,1.8577,1.8592,1.8619,1.8662,1.87,1.8706,1.8721,1.8734,1.8739,1.8673,1.8664,1.8656,1.8643,1.8738,1.8738,1.8804,1.8805,1.8806]},{"header":{"parameterUnit":"m.s-1","parameterCategory":1,"la1":30.2991,"la2":30.254,"lo1":-89.0895,"lo2":-89.0444,"dy":0.0017,"dx":0.0017,"nx":28,"ny":28,"refTime":"2026-02-10T09:00:00:Z","depth":0,"parameterNumber":3,"parameterNumberName":"V-component_of_WINDS"},"data":[0,0,0,0,0,0,0,0,0,0,0,0,0,0,0,0,0,0,0,0,0,0,0,0,0,0,0,0,0,0,0,0,0,0,0,0,0,0,0,0,0,0,0,0,0,0,0,0,0,0,0,0,0,0,0,0,0,0,1.5204,1.5203,0,1.5132,1.5131,1.513,1.5103,1.5103,1.5103,1.5103,1.5022,1.502,1.5018,0,0,0,0,0,0,0,0,0,0,0,0,0,1.531,1.5308,1.5204,1.5203,1.5202,1.5132,1.5131,1.513,1.5103,1.5103,1.5103,1.5103,1.5023,1.502,1.5017,0,0,0,0,0,0,0,0,0,0,0,0,0,1.5254,1.5308,1.5204,1.518,1.5177,1.5132,1.5131,1.513,1.5102,1.5103,1.5103,1.5104,1.5024,1.5021,1.5017,1.4988,0,0,1.5006,1.5005,0,0,0,0,0,0,0,0,1.5257,1.525,1.5185,1.5182,1.5179,1.5127,1.5139,1.5082,1.5102,1.5131,1.5103,1.5104,1.5056,1.505,1.5036,1.4984,1.4981,1.5006,1.5004,1.5002,1.5001,0,0,0,0,0,0,0,1.5261,1.5253,1.5175,1.5184,1.518,1.5171,1.5163,1.5128,1.5092,1.5128,1.5126,1.5118,1.5055,1.5039,1.5034,1.498,1.5006,1.5003,1.5001,1.4999,1.4899,1.4899,0,0,0,0,0,0,1.527,1.5256,1.5178,1.5173,1.522,1.5168,1.516,1.5143,1.5093,1.5085,1.5118,1.5117,1.5045,1.5038,1.5031,1.4992,1.5002,1.4999,1.4997,1.49,1.4899,1.4899,0,0,0,0,0,0,1.5272,1.5263,1.518,1.5214,1.5203,1.5166,1.5147,1.5141,1.5126,1.5085,1.5078,1.5109,1.5045,1.5036,1.4999,1.4989,1.4997,1.4994,1.49,1.49,1.4899,1.4917,0,0,0,0,0,0,1.5275,1.5264,1.5255,1.5214,1.5201,1.5153,1.5147,1.514,1.5121,1.5119,1.5075,1.5068,1.5045,1.5005,1.4996,1.4985,1.4991,1.4901,1.49,1.4899,1.4917,1.4917,1.4917,0,0,0,0,0,1.5279,1.5261,1.5254,1.5245,1.5189,1.5152,1.5144,1.512,1.512,1.5109,1.5082,1.5069,1.4992,1.5001,1.4991,1.4978,1.4902,1.49,1.4899,1.4917,1.4917,1.4917,0,0,0,0,0,0,1.5299,1.5256,1.5247,1.5216,1.5189,1.5148,1.5133,1.5121,1.5091,1.509,1.5059,1.5049,1.5015,1.4993,1.5004,1.4947,1.4946,1.4942,1.4963,1.4962,1.4962,1.4967,1.4988,0,0,0,0,0,1.5301,1.5277,1.5239,1.5215,1.5202,1.517,1.5153,1.5137,1.5105,1.5093,1.5064,1.5032,1.5,1.498,1.4949,1.4914,1.4902,1.49,1.49,1.49,1.4897,1.4875,1.4873,1.4895,1.4895,1.4895,0,0,1.5302,1.5275,1.5262,1.5218,1.5195,1.5168,1.516,1.5133,1.5112,1.5088,1.5052,1.503,1.4992,1.4956,1.4938,1.4936,1.4888,1.4898,1.4899,1.4896,1.4873,1.4871,1.487,1.4894,1.4894,1.4894,0,0,1.5291,1.527,1.5247,1.5224,1.5189,1.5168,1.5162,1.5123,1.5108,1.5072,1.5053,1.5027,1.4974,1.4947,1.4927,1.4905,1.4891,1.4895,1.4894,1.4873,1.4871,1.487,1.486,1.4858,1.4893,1.4893,1.4893,0,1.5297,1.5259,1.5236,1.521,1.519,1.517,1.5145,1.5123,1.5078,1.5064,1.5063,1.4996,1.4969,1.4925,1.492,1.4905,1.4895,1.49,1.4874,1.4872,1.487,1.4861,1.4857,1.4894,1.4894,1.4894,1.4893,0,1.5267,1.524,1.5226,1.5186,1.5165,1.5139,1.511,1.5091,1.5076,1.5054,1.5017,1.4984,1.4945,1.4934,1.4918,1.4887,1.4887,1.4881,1.4878,1.4869,1.486,1.4856,1.4895,1.4894,1.4894,1.4894,0,0,1.5266,1.5215,1.521,1.5191,1.5151,1.5128,1.5101,1.5065,1.5049,1.5018,1.4993,1.4948,1.4942,1.4918,1.49,1.4881,1.4864,1.4876,1.4875,1.4874,1.4826,1.4831,1.4827,1.4855,1.4854,1.4854,1.4829,0,1.5249,1.5203,1.5181,1.5142,1.5116,1.5096,1.5071,1.5042,1.5021,1.4994,1.4969,1.4937,1.4932,1.4918,1.4899,1.4871,1.4854,1.4872,1.4828,1.4827,1.4838,1.4823,1.4827,1.4806,1.4825,1.4824,1.4824,0,1.5224,1.5196,1.5155,1.5118,1.5106,1.5085,1.5049,1.5025,1.499,1.4976,1.495,1.4932,1.4899,1.49,1.4853,1.4866,1.4847,1.483,1.4829,1.4823,1.4825,1.4815,1.4798,1.4794,1.4818,1.4819,1.4819,0,1.5226,1.5178,1.5148,1.5132,1.5088,1.5073,1.5053,1.502,1.4999,1.4967,1.4953,1.4917,1.4897,1.4869,1.484,1.4844,1.4795,1.4794,1.478,1.4781,1.477,1.4771,1.4749,1.476,1.476,1.476,1.476,0,1.5209,1.5185,1.5148,1.5129,1.51,1.5074,1.5046,1.5024,1.4994,1.4968,1.4948,1.4923,1.4888,1.4858,1.4836,1.4799,1.4791,1.4776,1.477,1.4777,1.4779,1.4763,1.4764,1.4759,1.4759,1.4759,1.4759,0,1.5207,1.5182,1.5147,1.5108,1.5097,1.5078,1.5043,1.5022,1.5,1.4967,1.4958,1.4922,1.4886,1.4855,1.4807,1.4792,1.4754,1.4747,1.4766,1.4763,1.475,1.4751,1.4716,1.4709,1.4726,1.4726,1.4726,0,1.5198,1.5179,1.5138,1.5121,1.5102,1.5074,1.5053,1.5026,1.5005,1.4964,1.4947,1.4911,1.488,1.4822,1.479,1.4753,1.4744,1.4734,1.4738,1.4746,1.4742,1.4743,1.474,1.4734,1.4734,1.4734,1.4734,0,1.5183,1.5171,1.5144,1.5112,1.5088,1.5061,1.5033,1.5019,1.4986,1.4962,1.4927,1.4903,1.4855,1.4817,1.4776,1.4752,1.4736,1.4733,1.4727,1.4734,1.4745,1.4738,1.4764,1.4734,1.4734,1.4734,1.4734,1.4734,1.5175,1.5157,1.5126,1.5095,1.5072,1.5046,1.5024,1.5,1.4971,1.4931,1.4916,1.4879,1.4842,1.4786,1.4763,1.4731,1.4729,1.4721,1.4719,1.4717,1.4718,1.4752,1.4723,1.4723,1.4723,1.4723,1.4723,0,1.5159,1.5138,1.511,1.5072,1.5048,1.5038,1.5006,1.4985,1.4953,1.4923,1.4893,1.4851,1.4814,1.4779,1.474,1.4721,1.4713,1.4712,1.4712,1.4706,1.4723,1.4731,1.4719,1.4719,1.4719,1.4719,1.4719,1.4719,1.5147,1.5115,1.51,1.5055,1.5033,1.4999,1.4981,1.4956,1.4931,1.4886,1.4856,1.4835,1.4801,1.4759,1.4724,1.4714,1.47,1.4701,1.4689,1.4705,1.4705,1.4706,1.4714,1.4698,1.4698,1.4675,1.4675,1.4675]}]]